Location: Unspecified
(0.0000°N, 0.0000°E)
Time: 22:21:01
(UTC+00:00)

ARIANE 6 FM1 Upper Stage - Pass Details

Date: 13 April 2026
Orbit: 525 x 604 km, 62.0° (Epoch: 18 April)

Event Time Altitude Azimuth Distance (km) Brightness Sun altitude
Rises 04:23:48 0° 353° (N) 2,654 6.2 -23.9°
Reaches altitude 10° 04:26:11 10° 5° (N) 1,777 5.4 -23.3°
Maximum altitude 04:29:38 28° 66° (ENE) 1,025 4.6 -22.4°
Drops below altitude 10° 04:33:11 10° 126° (SE) 1,820 5.8 -21.6°
Sets 04:35:38 0° 137° (SE) 2,732 6.6 -21.0°
